Location: Buckland
(65.9785°N, 161.1281°W)
Time: 06:48:37
(UTC+00:00)

Transit 2A Rocket - Pass Details

Date: 29 November 2020
Orbit: 592 x 910 km, 66.7° (Epoch: 21 January)

Event Time Altitude Azimuth Distance (km) Brightness Sun altitude
Exits shadow 15:19:08 78° 165° (SSE) 813 5.0 -27.2°
Maximum altitude 15:19:12 78° 156° (SSE) 812 5.0 -27.2°
Drops below altitude 10° 15:24:22 10° 71° (ENE) 2,252 8.4 -26.6°
Sets 15:26:38 0° 70° (ENE) 3,126 9.4 -26.4°
